Preview of NWS' New Version of Forecast
This preview is not operational and should not be used for support decisions.
Latest weather observations around

Albuquerque, Albuquerque International Airport (KABQ)

Using English Units (Switch to International System of Units)
Date/ Time (MDT) Wind (mph) Vis. (mi) Weather Sky Cond. Temp (°F) Rel. Humidity Wind Chill (°F) Heat Index (°F) Pressure Precip. (in)
Air Dwpt 6 hour Altimeter (inHg) Sea level (inHg) 1 hr 3 hr 6 hr
Max Min
Sep 15 01:52 WNW 6 10 Cloudy FEW100 BKN130 OVC200 67 53     61%     30.27 30.02      
Sep 15 00:52 Calm 10 Cloudy FEW110 OVC150 69 50     51%     30.26 30.02      
Sep 14 23:52 E 6 10 Cloudy OVC160 68 51     55%     30.27 30.03      
Sep 14 22:52 SSE 15 10 Cloudy FEW110 OVC180 69 53     57%     30.29 30.06      
Sep 14 21:52 SE 10 10 Cloudy FEW070 OVC160 68 48     49%     30.29 30.07      
Sep 14 20:52 WSW 5 10 Partly Cloudy FEW060 SCT070 66 49     54%     30.29 30.08      
Sep 14 20:37 WNW 9 10 Mostly Cloudy SCT055 BKN070 64 50     60%     30.3        
Sep 14 20:28 NW 15 10 Cloudy FEW050 OVC065 66 49     54%     30.31        
Sep 14 20:13 N 11 10 Thunderstorms OVC070 68 46     45%     30.31        
Sep 14 19:52 WNW 10 10 Cloudy BKN075 OVC090 73 49     43%   72 30.3 30.08      
Sep 14 19:27 SSE 8 10 Cloudy BKN095 OVC170 73 50     44%   72 30.27        
Sep 14 18:52 SSE 13 10 Mostly Cloudy SCT110 BKN140 73 51     46%   72 30.25 30.03      
Sep 14 17:52   10 Mostly Cloudy BKN140 75 49     40%   74 30.23 30     0
Sep 14 16:52 SE 10 10 Mostly Cloudy SCT130 BKN190 77 51     40%   76 30.21 29.98      
Sep 14 15:52   10 Cloudy FEW060 SCT080 BKN200 OVC300 80 49     34%   79 30.21 29.96      
Sep 14 14:52 SSE 9 10 Cloudy SCT070 SCT130 BKN210 OVC300 82 44     26%   80 30.21 29.95 0 0  
Sep 14 13:52 7 10 Cloudy SCT070 SCT120 SCT200 OVC300 82 52     35%   81 30.25 29.98      
Sep 14 13:04 WSW 6 10 Cloudy FEW050 SCT060 SCT200 OVC300 81 53     38%   80 30.26        
Sep 14 12:52 3 10 Cloudy FEW050 FEW060 SCT200 OVC300 81 53     38%   80 30.26 30.01      
Sep 14 12:37 7 10 Cloudy FEW050 FEW060 SCT200 OVC300 80 53     39%   80 30.27        
Sep 14 11:52 SSE 5 10 Cloudy FEW060 FEW200 OVC300 80 54     41%   80 30.29 30.03      
Sep 14 10:52 SW 13 10 Cloudy FEW060 FEW070 OVC300 77 54     45%   77 30.32 30.06      
Sep 14 09:52 SW 9 10 Cloudy FEW070 BKN250 OVC300 74 54     50%   73 30.33 30.08      
Sep 14 08:52 SSE 6 10 Cloudy FEW080 BKN250 OVC300 72 54     53%   71 30.33 30.08      
Sep 14 07:52 ESE 3 10 Cloudy FEW085 SCT150 BKN250 OVC300 68 54     61%     30.32 30.07      
Sep 14 06:52 SE 5 10 Cloudy FEW095 BKN200 OVC300 66 53     63%     30.31 30.06      
Sep 14 05:52 ESE 6 10 Partly Cloudy FEW090 SCT250 SCT300 67 53     61%     30.3 30.04      
Sep 14 04:52 E 7 10 Partly Cloudy FEW090 FEW190 SCT230 SCT280 68 52     57%     30.29 30.03      
Sep 14 03:52 ESE 7 10 Mostly Cloudy FEW090 SCT190 SCT230 BKN280 70 52     53%     30.28 30.02      
Sep 14 02:52 ESE 7 10 Mostly Cloudy FEW100 SCT250 BKN300 70 51     51%     30.29 30.03      
Sep 14 01:52 ESE 8 10 Partly Cloudy FEW100 FEW200 SCT250 71 50     47%   70 30.29 30.03      
Sep 14 00:52 ESE 7 10 Mostly Cloudy SCT100 SCT200 BKN250 71 50     47%   70 30.29 30.03      
Sep 13 23:52 SSE 13 10 Partly Cloudy FEW120 SCT250 74 50     43%   73 30.28 30.03      
Sep 13 22:52 S 6 10 Mostly Cloudy BKN250 74 51     45%   73 30.27 30.03      
Sep 13 21:52 SE 6 10 Mostly Cloudy FEW110 BKN250 75 52     45%   74 30.26 30.02      
Sep 13 20:52 SSE 10 10 Mostly Cloudy FEW110 BKN220 78 50     37%   77 30.24 29.99      
Sep 13 19:52 S 10 10 Clear   84 40     21%   81 30.2 29.95      
Sep 13 18:52 Calm 10 Partly Cloudy FEW110 SCT200 85 38     19%   82 30.2 29.95      
Sep 13 17:52 S 6 10 Partly Cloudy FEW080 SCT250 86 39     19%   83 30.2 29.94      
Sep 13 16:52 Calm 10 Partly Cloudy FEW080 SCT250 87 42     21%   84 30.21 29.95      
Sep 13 15:52 3 10 Partly Cloudy FEW080 SCT250 85 46     26%   82 30.23 29.97      
Sep 13 14:52 Calm 10 Mostly Cloudy FEW080 FEW110 BKN250 83 46     28%   81 30.26 30      
Sep 13 13:52 S 7 10 Mostly Cloudy FEW070 BKN110 BKN250 82 48     31%   81 30.29 30.04      
Sep 13 12:52 3 10 Mostly Clear FEW060 FEW130 FEW250 80 52     38%   80 30.31 30.08      
Sep 13 11:52 3 10 Mostly Clear FEW060 FEW130 FEW250 78 54     43%   78 30.34 30.11      
Sep 13 10:52 NNE 9 10 Mostly Clear FEW040 FEW130 FEW250 75 52     45%   74 30.35 30.11      
Sep 13 09:52   10 Mostly Clear FEW035 FEW130 FEW250 73 54     51%   72 30.35 30.11      
Sep 13 08:52 ESE 9 10 Mostly Clear FEW035 FEW130 FEW250 70 53     55%     30.35 30.12      
Sep 13 07:52   10 Partly Cloudy FEW035 FEW130 SCT250 67 52     59%     30.34 30.11      
Sep 13 06:52   10 Mostly Clear FEW035 FEW220 65 51     61%     30.32 30.09      
Sep 13 05:52   10 Mostly Clear FEW180 66 50     56%     30.29 30.04      
Sep 13 04:52   10 Mostly Clear FEW180 66 48     52%     30.28 30.03      
Sep 13 03:52   10 Mostly Clear FEW200 68        %     30.27 30.02      
Sep 13 02:52   10 Mostly Clear FEW130 FEW200 69        %     30.26 30.01      
Notice The following observation data may not be complete
Sep 13 01:52 Calm 10 Mostly Clear FEW200          %     30.28 30.03      
Sep 13 00:52 ENE 9 10 Mostly Clear FEW200 68 24     19%     30.26 30.02      
Sep 12 23:52 NNE 6 10 Mostly Clear FEW110 66 24     20%     30.25 30.02      
Sep 12 22:52 N 7 10 Clear CLR 72 23     16%   70 30.25 30.01      
Sep 12 21:52 N 6 10 Clear CLR 74 24     15%   72 30.25 30.02      
Sep 12 20:52 NNW 8 10 Clear CLR 76 24     14%   74 30.24 30.02      
Sep 12 19:52 N 8 10 Mostly Clear FEW250 78 24     13%   76 30.22 29.99      
Sep 12 18:52 N 11 10 Mostly Clear FEW250 81 25     13%   79 30.2 29.96      
Sep 12 17:52 N 10 10 Clear CLR 83 25     12%   80 30.2 29.95      
Sep 12 16:52 6 10 Clear CLR 83 26     12%   80 30.2 29.93      
Sep 12 15:52 NW 11 10 Clear CLR 83 27     13%   80 30.21 29.96      
Sep 12 14:52 WNW 15 10 Mostly Clear FEW250 82 28     14%   80 30.22 29.97      
Sep 12 13:52 WNW 8 10 Mostly Clear FEW250 80 30     16%   79 30.24 29.98      
Sep 12 12:52 N 14 10 Mostly Clear FEW250 80 33     18%   79 30.26 29.99      
Sep 12 11:52 NNW 10 10 Mostly Clear FEW110 78 32     19%   76 30.28 30.01      
Sep 12 10:52 NNW 6 10 Mostly Clear FEW110 73 34     24%   71 30.29 30.04      
Sep 12 09:52 NNW 7 10 Mostly Clear FEW100 69 34     27%     30.3 30.06      
Sep 12 08:52 N 7 10 Mostly Clear FEW100 66 34     30%     30.28 30.04      
Sep 12 07:52 NNW 11 10 Mostly Clear FEW100 65 33     30%     30.26 30.02      
Sep 12 06:52 NNW 13 10 Mostly Clear FEW100 65 33     30%     30.25 30      
Sep 12 05:52 NNW 8 10 Mostly Clear FEW095 67 34     29%     30.23 29.97      
Sep 12 04:52 NNW 10 10 Partly Cloudy SCT095 70 40     33%     30.21 29.95      
Sep 12 03:52 Calm 10 Mostly Cloudy BKN095 68 48     49%     30.19 29.93      
Sep 12 02:52 SSE 5 10 Mostly Cloudy BKN100 70 46     42%     30.17 29.9      
May 15 11:52 SSE 7 10 Partly Cloudy SCT110 78 24     13%   76 30.13 29.88      
May 14 18:52 W 6 10 Mostly Cloudy FEW110 BKN150 80 27     14%   78 29.95 29.73      
May 14 17:52 W 8 10 Mostly Cloudy SCT110 BKN150 80 28     15%   78 29.96 29.73      
May 14 11:52 WSW 10 10 Mostly Clear FEW100 73 26     17%   71 30.1 29.87      
May 13 17:52   10 Partly Cloudy FEW130 SCT250 84 18     9%   80 29.92 29.69      
May 13 05:52 SE 7 10 Clear CLR 56 26     31%     30.06 29.83      
May 12 16:52 SW 18 10 Mostly Clear FEW120 FEW250 86 20     9%   82 29.89 29.65      
May 12 00:52 SE 7 10 Mostly Clear FEW250 66 22     19%     29.93 29.67      
May 11 20:52 W 10 10 Mostly Cloudy FEW130 BKN250 80 20     11%   78 29.85 29.57      
May 11 19:52 W 15 10 Mostly Cloudy FEW130 BKN250 82 20     10%   79 29.81 29.54      
May 11 14:52   10 Mostly Cloudy FEW140 SCT190 BKN280 88 23     9%   84 29.81 29.51      
Jun 11 21:52 SSE 9 10 Clear   76 5     6%   74 29.94 29.67      
Jun 11 13:52 3 10 Clear CLR 86 9     5%   82 29.97 29.68      
Jun 11 10:52 Calm 10 Mostly Clear FEW220 79 15     9%   77 30.01 29.75      
Jun 10 06:52 ESE 5 10 Clear CLR 65 31     28%     30.01 29.72      
Jun 09 01:52   10 Clear   71 48     44%   70 30.04 29.76      
Jun 08 22:42   10 Mostly Cloudy FEW150 BKN250 76        %     30.04        
Jun 08 20:52 NNW 10 10 Mostly Cloudy FEW160 BKN250 86 19     8%   82 29.98 29.71      
Jun 08 19:52 NW 14 10 Mostly Cloudy SCT160 BKN250 90 14     6%   85 29.97 29.68      
Jun 08 00:52 SE 8 10 Mostly Cloudy FEW140 BKN250 70 47     44%     30.19 29.93      
Jun 07 07:52 E 10 10 Partly Cloudy SCT250 69 48     47%     30.24 29.99      
Jun 05 19:52 ENE 9 10 Mostly Cloudy BKN130 BKN250 89        %     30 29.72